Home   Weather   Springfield   Past weeks

Flag for USA Past Weather in Springfield, Illinois, USA — Yesterday and Last 2 Weeks

Now
67 °F

Cloudy.


Feels Like: 67 °F
Forecast: 59 / 70 °F
Wind: 9 mph from North

Location: Capital Airport

Current Time: Sep 30, 2016 at 5:11:27 PM

Latest Report: Sep 30, 2016 at 4:00 PM


Visibility: 10 mi

Pressure: 30.04 "Hg

Humidity: 81%

Dew Point: 61 °F

Location of SpringfieldLocation

Past Weather in Springfield — Graph

°F

Springfield Temperature Yesterday

Maximum temperature yesterday: 66 °F (at 11:59 AM)
Minimum temperature yesterday: 55 °F (at 12:52 AM)
Average temperature yesterday: 60 °F

High & Low Weather Summary for the Past Weeks

 TemperatureHumidityPressure
High92 °F (Sep 20, 3:52 PM)97% (Sep 18, 7:52 AM)30.19 "Hg (Sep 18, 7:52 AM)
Low51 °F (Sep 27, 6:52 AM)18% (Sep 26, 3:52 PM)29.74 "Hg (Sep 28, 3:52 AM)
Average71 °F70%30.03 "Hg
* Reported Sep 15 4:52 PM — Sep 30 4:00 PM, Springfield, Weather by CustomWeather, © 2016

Note: Actual official high and low records may vary slightly from our data, if they occured in-between our weather recording intervals... More about our weather records

Advertising

Springfield Weather History for the Previous 24 Hours

Scroll right to see more
 ConditionsComfort  
Time TempWeatherWind HumidityBarometerVisibility
4:00 PM
Fri, Sep 30
67 °FCloudy.9 mph81%30.04 "Hg10 mi
3:02 PM66 °FFog.12 mph87%30.06 "Hg2 mi
2:00 PM64 °FLight rain. Fog.8 mph90%30.08 "Hg2 mi
12:52 PM65 °FCloudy.9 mph85%30.10 "Hg8 mi
11:58 AM65 °FMostly cloudy.12 mph87%30.11 "Hg10 mi
11:52 AM65 °FCloudy.12 mph91%30.10 "Hg10 mi
10:52 AM63 °FOvercast.10 mph87%30.11 "Hg10 mi
9:52 AM62 °FFog.13 mph90%30.11 "Hg5 mi
8:52 AM60 °FFog.12 mph93%30.11 "Hg4 mi
7:52 AM60 °FFog.10 mph93%30.12 "Hg6 mi
6:52 AM60 °FMostly cloudy.12 mph90%30.10 "Hg8 mi
5:52 AM60 °FMostly cloudy.9 mph93%30.12 "Hg7 mi
4:52 AM59 °FLow clouds.10 mph93%30.12 "Hg7 mi
3:52 AM59 °FFog.8 mph93%30.13 "Hg5 mi
2:52 AM59 °FFog.7 mph93%30.13 "Hg5 mi
1:52 AM59 °FFog.10 mph93%30.14 "Hg5 mi
12:52 AM57 °FFog.8 mph96%30.15 "Hg4 mi
11:52 PM
Thu, Sep 29
58 °FFog.8 mph93%30.16 "Hg6 mi
10:52 PM60 °FClear.9 mph90%30.18 "Hg8 mi
9:52 PM60 °FPassing clouds.9 mph90%30.19 "Hg10 mi
8:52 PM61 °FMostly cloudy.12 mph90%30.18 "Hg10 mi
7:52 PM61 °FPassing clouds.12 mph90%30.17 "Hg10 mi
6:52 PM62 °FMostly cloudy.12 mph90%30.17 "Hg10 mi
5:52 PM63 °FLight rain. Fog.10 mph93%30.16 "Hg4 mi
Weather by CustomWeather, © 2016

See weather overviewHow to use our weather pages